QPF
0.00 0.00 0.00 0.00 0.00 0.00 0.00 0.00 0.00 0.00 0.00 0.00 0.00 0.00 0.00 0.00 0.00 0.00 0.00 0.00 0.00 0.00 0.00 0.00 0.00 0.00 0.00 0.00 0.00 0.00 0.00 0.00 0.00 0.00 0.00 0.00 0.00 0.00 0.00 0.00 0.00 0.00 0.00 0.00 0.00 0.00 0.00 0.00 0.00
0.00 0.00 0.00 0.00 0.00 0.00 0.00 0.00 0.00 0.00 0.00 0.00 0.00 0.00 0.00 0.00 0.00 0.00 0.00 0.00 0.00 0.00 0.00 0.00 0.00 0.00 0.00 0.00 0.00 0.00 0.00 0.00 0.00 0.00 0.00 0.00 0.00 0.00 0.00 0.00 0.00 0.00 0.00 0.00 0.00 0.00 0.00 0.00 0.00
0.00 0.00 0.00 0.00 0.00 0.00 0.00 0.00 0.00 0.00 0.00 0.00 0.00 0.00 0.00 0.00 0.00 0.00 0.00 0.00 0.00 0.00 0.00 0.00 0.00 0.00 0.00 0.00 0.00 0.00 0.00 0.00 0.00 0.00 0.00 0.00 0.00 0.00 0.00 0.00 0.00 0.00 0.00 0.00 0.00 0.00 0.00 0.00 0.00
0.00 0.00 0.00 0.00 0.00 0.00 0.00 0.00 0.00 0.00 0.00 0.00 0.00 0.00 0.00 0.00 0.00 0.00 0.00 0.00 0.00 0.00 0.00 0.00 0.00 0.00 0.00 0.00 0.00 0.00 0.00 0.00 0.00 0.00 0.00 0.00 0.00 0.00 0.00 0.00 0.00 0.00 0.00 0.00 0.00 0.00 0.00 0.00 0.00
0.00 0.00 0.00 0.00 0.00 0.00 0.00 0.00 0.00 0.00 0.00 0.00 0.00 0.00 0.00 0.00 0.00 0.00 0.00 0.00 0.00 0.00 0.00 0.00 0.00 0.00 0.00 0.00 0.00 0.00 0.00 0.00 0.00 0.00 0.00 0.00 0.00 0.00 0.00 0.00 0.00 0.00 0.00 0.00 0.00 0.00 0.00 0.00 0.00
0.00 0.00 0.00 0.00 0.00 0.00 0.00 0.00 0.00 0.00 0.00 0.00 0.00 0.00 0.00 0.00 0.00 0.00 0.00 0.00 0.00 0.00 0.00 0.00 0.00 0.00 0.00 0.00 0.00 0.00 0.00 0.00 0.00 0.00 0.00 0.00 0.00 0.00 0.00 0.00 0.00 0.00 0.00 0.00 0.00 0.00 0.00 0.00 0.00
0.00 0.00 0.00 0.00 0.00 0.00 0.00 0.00 0.00 0.00 0.00 0.00 0.00 0.00 0.00 0.00 0.00 0.00 0.00 0.00 0.00 0.00 0.00 0.00 0.00 0.00 0.00 0.00 0.00 0.00 0.00 0.00 0.00 0.00 0.00 0.00 0.00 0.00 0.00 0.00 0.00 0.00 0.00 0.00 0.00 0.00 0.00 0.00 0.00
0.00 0.00 0.00 0.00 0.00 0.00 0.00 0.00 0.00 0.00 0.00 0.00 0.00 0.00 0.00 0.00 0.00 0.00 0.00 0.00 0.00 0.00 0.00 0.00 0.00 0.00 0.00 0.00 0.00 0.00 0.00 0.00 0.00 0.00 0.00 0.00 0.00 0.00 0.00 0.00 0.00 0.00 0.00 0.00 0.00 0.00 0.00 0.00 0.00
0.00 0.00 0.00 0.00 0.00 0.00 0.00 0.00 0.00 0.00 0.00 0.00 0.00 0.00 0.00 0.00 0.00 0.00 0.00 0.00 0.00 0.00 0.00 0.00 0.00 0.00 0.00 0.00 0.00 0.00 0.00 0.00 0.00 0.00 0.00 0.00 0.00 0.00 0.00 0.00 0.00 0.00 0.00 0.00 0.00 0.00 0.00 0.00 0.00
0.00 0.00 0.00 0.00 0.00 0.00 0.00 0.00 0.00 0.00 0.00 0.00 0.00 0.00 0.00 0.00 0.00 0.00 0.00 0.00 0.00 0.00 0.00 0.00 0.00 0.00 0.00 0.00 0.00 0.00 0.00 0.00 0.00 0.00 0.00 0.00 0.00 0.00 0.00 0.00 0.00 0.00 0.00 0.00 0.00 0.00 0.00 0.00 0.00
0.00 0.00 0.00 0.00 0.00 0.00 0.00 0.00 0.00 0.00 0.00 0.00 0.00 0.00 0.00 0.00 0.00 0.00 0.00 0.00 0.00 0.00 0.00 0.00 0.00 0.00 0.00 0.00 0.00 0.00 0.00 0.00 0.00 0.00 0.00 0.00 0.00 0.00 0.00 0.00 0.00 0.00 0.00 0.00 0.00 0.00 0.00 0.00 0.00
0.00 0.00 0.00 0.00 0.00 0.00 0.00 0.00 0.00 0.00 0.00 0.00 0.00 0.00 0.00 0.00 0.00 0.00 0.00 0.00 0.00 0.00 0.00 0.00 0.00 0.00 0.00 0.00 0.00 0.00 0.00 0.00 0.00 0.00 0.00 0.00 0.00 0.00 0.00 0.00 0.00 0.00 0.00 0.00 0.00 0.00 0.00 0.00 0.00
0.00 0.00 0.00 0.00 0.00 0.00 0.00 0.00 0.00 0.00 0.00 0.00 0.00 0.00 0.00 0.00 0.00 0.00 0.00 0.00 0.00 0.00 0.00 0.00 0.00 0.00 0.00 0.00 0.00 0.00 0.00 0.00 0.00 0.00 0.00 0.00 0.00 0.00 0.00 0.00 0.00 0.00 0.00 0.00 0.00 0.00 0.00 0.00 0.00
0.00 0.00 0.00 0.00 0.00 0.00 0.00 0.00 0.00 0.00 0.00 0.00 0.00 0.00 0.00 0.00 0.00 0.00 0.00 0.00 0.00 0.00 0.00 0.00 0.00 0.00 0.00 0.00 0.00 0.00 0.00 0.00 0.00 0.00 0.00 0.00 0.00 0.00 0.00 0.00 0.00 0.00 0.00 0.00 0.00 0.00 0.00 0.00 0.00
0.00 0.00 0.00 0.00 0.00 0.00 0.00 0.00 0.00 0.00 0.00 0.00 0.00 0.00 0.00 0.00 0.00 0.00 0.00 0.00 0.00 0.00 0.00 0.00 0.00 0.00 0.00 0.00 0.00 0.00 0.00 0.00 0.00 0.00 0.00 0.00 0.00 0.00 0.00 0.00 0.00 0.00 0.00 0.00 0.00 0.00 0.00 0.00 0.00
0.00 0.00 0.00 0.00 0.00 0.00 0.00 0.00 0.00 0.00 0.00 0.00 0.00 0.00 0.00 0.00 0.00 0.00 0.00 0.00 0.00 0.00 0.00 0.00 0.00 0.00 0.00 0.00 0.00 0.00 0.00 0.00 0.00 0.00 0.00 0.00 0.00 0.00 0.00 0.00 0.00 0.00 0.00 0.00 0.00 0.00 0.00 0.00 0.00
0.00 0.00 0.00 0.00 0.00 0.00 0.00 0.00 0.00 0.00 0.00 0.00 0.00 0.00 0.00 0.00 0.00 0.00 0.00 0.00 0.00 0.00 0.00 0.00 0.00 0.00 0.00 0.00 0.00 0.00 0.00 0.00 0.00 0.00 0.00 0.00 0.00 0.00 0.00 0.00 0.00 0.00 0.00 0.00 0.00 0.00 0.00 0.00 0.00
0.00 0.00 0.00 0.00 0.00 0.00 0.00 0.00 0.00 0.00 0.00 0.00 0.00 0.00 0.00 0.00 0.00 0.00 0.00 0.00 0.00 0.00 0.00 0.00 0.00 0.00 0.00 0.00 0.00 0.00 0.00 0.00 0.00 0.00 0.00 0.00 0.00 0.00 0.00 0.00 0.00 0.00 0.00 0.00 0.00 0.00 0.00 0.00 0.00
0.00 0.00 0.00 0.00 0.00 0.00 0.00 0.00 0.00 0.00 0.00 0.00 0.00 0.00 0.00 0.00 0.00 0.00 0.00 0.00 0.00 0.00 0.00 0.00 0.00 0.00 0.00 0.00 0.00 0.00 0.00 0.00 0.00 0.00 0.00 0.00 0.00 0.00 0.00 0.00 0.00 0.00 0.00 0.00 0.00 0.00 0.00 0.00 0.00
0.00 0.00 0.00 0.00 0.00 0.00 0.00 0.00 0.00 0.00 0.00 0.00 0.00 0.00 0.00 0.00 0.00 0.00 0.00 0.00 0.00 0.00 0.00 0.00 0.00 0.00 0.00 0.00 0.00 0.00 0.00 0.00 0.00 0.00 0.00 0.00 0.00 0.00 0.00 0.00 0.00 0.00 0.00 0.00 0.00 0.00 0.00 0.00 0.00
0.00 0.00 0.00 0.00 0.00 0.00 0.00 0.00 0.00 0.00 0.01 0.00 0.00 0.00 0.00 0.00 0.00 0.00 0.00 0.00 0.00 0.00 0.00 0.00 0.00 0.00 0.00 0.00 0.00 0.00 0.00 0.00 0.00 0.00 0.00 0.00 0.00 0.00 0.00 0.00 0.00 0.00 0.00 0.00 0.00 0.00 0.00 0.00 0.00
0.00 0.00 0.00 0.00 0.00 0.00 0.00 0.00 0.02 0.02 0.05 0.00 0.00 0.00 0.00 0.00 0.00 0.00 0.00 0.00 0.00 0.00 0.00 0.00 0.00 0.00 0.00 0.00 0.00 0.00 0.00 0.00 0.00 0.00 0.00 0.00 0.00 0.00 0.00 0.00 0.00 0.00 0.00 0.00 0.00 0.00 0.00 0.00 0.00
0.00 0.00 0.00 0.00 0.00 0.00 0.00 0.02 0.11 0.00 0.03 0.02 0.00 0.00 0.00 0.00 0.00 0.00 0.00 0.00 0.00 0.00 0.00 0.00 0.00 0.00 0.00 0.00 0.01 0.00 0.01 0.02 0.01 0.00 0.00 0.00 0.00 0.00 0.00 0.00 0.00 0.00 0.00 0.00 0.00 0.00 0.00 0.00 0.00
0.00 0.00 0.00 0.00 0.00 0.02 0.02 0.06 0.14 0.05 0.12 0.08 0.04 0.01 0.00 0.00 0.00 0.00 0.00 0.00 0.00 0.00 0.00 0.00 0.00 0.00 0.00 0.00 0.00 0.00 0.00 0.01 0.01 0.02 0.02 0.01 0.00 0.00 0.00 0.00 0.00 0.00 0.00 0.00 0.00 0.00 0.00 0.00 0.00
0.00 0.00 0.00 0.01 0.03 0.04 0.00 0.10 0.12 0.09 0.09 0.17 0.20 0.10 0.03 0.00 0.00 0.00 0.00 0.00 0.00 0.00 0.00 0.00 0.00 0.00 0.00 0.00 0.00 0.00 0.00 0.00 0.00 0.00 0.00 0.00 0.01 0.02 0.01 0.01 0.00 0.00 0.00 0.00 0.00 0.00 0.00 0.00 0.00
0.00 0.00 0.01 0.02 0.01 0.03 0.02 0.07 0.11 0.07 0.04 0.08 0.15 0.19 0.12 0.03 0.00 0.00 0.00 0.00 0.00 0.00 0.00 0.00 0.00 0.00 0.00 0.00 0.00 0.00 0.00 0.00 0.00 0.00 0.00 0.00 0.00 0.00 0.00 0.00 0.01 0.01 0.00 0.00 0.00 0.00 0.00 0.00 0.00
0.00 0.00 0.00 0.01 0.01 0.11 0.06 0.03 0.05 0.01 0.02 0.04 0.13 0.15 0.13 0.09 0.04 0.00 0.00 0.00 0.00 0.00 0.00 0.00 0.00 0.00 0.00 0.00 0.00 0.00 0.00 0.00 0.00 0.00 0.00 0.00 0.00 0.00 0.00 0.00 0.00 0.00 0.00 0.00 0.00 0.00 0.00 0.00 0.00
0.00 0.00 0.00 0.01 0.02 0.06 0.03 0.01 0.02 0.01 0.04 0.07 0.08 0.09 0.16 0.13 0.06 0.02 0.00 0.00 0.00 0.00 0.00 0.00 0.00 0.00 0.00 0.00 0.00 0.00 0.00 0.00 0.00 0.00 0.00 0.00 0.00 0.01 0.01 0.01 0.01 0.00 0.00 0.00 0.00 0.00 0.00 0.00 0.00
0.00 0.00 0.00 0.01 0.01 0.02 0.08 0.03 0.01 0.01 0.02 0.02 0.02 0.03 0.01 0.01 0.04 0.02 0.01 0.00 0.00 0.00 0.00 0.00 0.00 0.00 0.00 0.00 0.00 0.00 0.00 0.00 0.00 0.00 0.00 0.00 0.00 0.00 0.00 0.01 0.02 0.03 0.04 0.03 0.02 0.01 0.01 0.02 0.03
0.00 0.00 0.00 0.01 0.01 0.01 0.03 0.03 0.01 0.01 0.01 0.01 0.00 0.00 0.00 0.00 0.01 0.02 0.01 0.00 0.00 0.00 0.00 0.00 0.00 0.00 0.00 0.00 0.00 0.00 0.00 0.00 0.00 0.00 0.00 0.00 0.00 0.00 0.00 0.01 0.01 0.01 0.02 0.02 0.04 0.05 0.04 0.05 0.04
MSLP
1011.12 1009.07 1008.44 1007.28 1005.80 1003.17 1000.56 999.05 998.18 998.42 999.46 999.98 1000.58 1000.81 1001.01 1000.92 1000.54 1001.96 1003.93 1004.77 1005.10 1006.82 1008.62 1009.91 1010.40 1010.96 1011.44 1012.08 1012.42 1012.81 1013.21 1013.83 1014.35 1014.58 1014.84 1015.10 1015.35 1015.61 1015.93 1016.18 1016.43 1016.67 1016.76 1016.94 1017.18 1017.43 1017.66 1017.93 1018.18
1010.59 1009.01 1007.99 1006.21 1004.26 1001.41 999.63 999.07 998.43 999.44 999.63 1000.76 1000.89 1000.97 1000.94 1000.81 1001.64 1003.51 1004.15 1005.01 1005.60 1006.93 1008.48 1009.47 1010.48 1011.02 1011.55 1012.13 1012.60 1013.01 1013.35 1013.94 1014.50 1014.74 1015.00 1015.36 1015.60 1015.82 1016.11 1016.41 1016.71 1016.97 1017.10 1017.25 1017.53 1017.77 1018.04 1018.34 1018.57
1010.50 1009.01 1007.15 1005.12 1003.22 1001.07 999.04 998.24 998.81 999.57 1000.54 1001.11 1001.15 1001.35 1001.48 1001.87 1002.98 1003.53 1004.36 1005.10 1005.89 1007.14 1008.20 1009.37 1010.52 1011.08 1011.65 1012.18 1012.64 1013.20 1013.48 1014.01 1014.56 1014.94 1015.16 1015.52 1015.83 1016.05 1016.33 1016.61 1016.90 1017.13 1017.37 1017.55 1017.82 1018.13 1018.42 1018.67 1018.87
1008.76 1007.81 1006.75 1004.98 1002.37 1000.99 1000.11 999.80 1000.26 999.95 1001.08 1001.80 1001.73 1001.53 1002.09 1003.83 1003.78 1004.25 1004.86 1005.49 1006.29 1007.20 1007.98 1009.88 1010.80 1011.24 1011.66 1012.40 1012.72 1013.27 1013.75 1014.15 1014.67 1014.98 1015.34 1015.72 1016.02 1016.27 1016.57 1016.83 1017.10 1017.30 1017.50 1017.81 1018.10 1018.44 1018.67 1018.88 1019.12
1008.47 1006.68 1005.13 1003.64 1002.74 1001.67 1001.56 1001.69 1002.09 1001.61 1001.51 1001.93 1001.97 1001.84 1002.50 1004.20 1004.91 1004.98 1005.49 1005.85 1006.55 1007.35 1008.06 1010.10 1010.92 1011.46 1011.86 1012.44 1012.95 1013.39 1013.84 1014.33 1014.90 1015.20 1015.44 1015.84 1016.19 1016.50 1016.79 1017.02 1017.24 1017.48 1017.69 1018.00 1018.36 1018.69 1018.96 1019.11 1019.33
1007.19 1006.17 1004.55 1002.91 1002.08 1001.96 1002.41 1002.78 1002.93 1002.67 1002.23 1002.10 1002.34 1002.28 1003.41 1004.52 1005.05 1005.55 1005.87 1006.33 1006.99 1007.59 1008.52 1010.20 1011.28 1011.69 1012.14 1012.53 1013.12 1013.57 1013.96 1014.47 1015.07 1015.38 1015.65 1015.98 1016.33 1016.70 1016.97 1017.24 1017.44 1017.64 1017.92 1018.20 1018.51 1018.87 1019.15 1019.34 1019.51
1006.98 1005.27 1004.11 1003.18 1002.21 1002.05 1003.17 1003.80 1003.93 1003.22 1002.65 1002.16 1002.37 1002.78 1003.58 1004.96 1005.93 1006.12 1006.48 1007.01 1007.53 1008.10 1008.97 1010.34 1011.30 1011.80 1012.47 1012.82 1013.27 1013.67 1014.11 1014.62 1015.10 1015.56 1015.89 1016.25 1016.52 1016.85 1017.15 1017.42 1017.64 1017.86 1018.11 1018.44 1018.69 1018.95 1019.27 1019.50 1019.61
1006.84 1005.85 1004.41 1003.58 1003.18 1003.32 1004.38 1005.18 1004.77 1004.24 1003.36 1003.13 1003.51 1003.12 1003.88 1006.32 1006.50 1006.52 1006.89 1007.36 1008.03 1008.71 1009.55 1010.49 1011.19 1011.77 1012.30 1013.05 1013.66 1013.91 1014.34 1014.75 1015.29 1015.72 1016.10 1016.49 1016.86 1017.12 1017.41 1017.67 1017.89 1018.08 1018.28 1018.51 1018.84 1019.07 1019.35 1019.59 1019.70
1007.82 1006.32 1004.65 1003.90 1003.85 1004.30 1005.71 1006.34 1005.42 1005.22 1004.73 1003.83 1003.97 1003.89 1005.32 1006.50 1007.21 1006.82 1007.28 1007.65 1008.34 1009.27 1009.95 1010.57 1010.96 1011.41 1011.82 1012.49 1013.64 1014.22 1014.66 1015.01 1015.47 1015.93 1016.41 1016.68 1016.53 1017.08 1017.52 1017.47 1017.89 1018.24 1018.46 1018.64 1018.88 1019.22 1019.47 1019.72 1019.84
1007.58 1006.28 1005.20 1005.56 1005.55 1005.95 1006.67 1006.98 1006.87 1006.89 1005.52 1004.37 1004.31 1004.44 1005.35 1006.12 1006.69 1007.32 1007.10 1007.59 1008.26 1009.05 1009.78 1010.49 1010.74 1011.09 1011.50 1011.84 1013.00 1013.74 1014.34 1014.78 1015.18 1015.57 1016.16 1016.07 1016.00 1016.56 1016.78 1017.30 1017.96 1018.33 1018.57 1018.81 1019.05 1019.32 1019.55 1019.71 1018.90
1007.41 1006.88 1006.62 1007.17 1008.63 1009.13 1008.70 1008.07 1007.63 1007.50 1006.83 1005.64 1005.06 1004.68 1004.88 1005.58 1006.27 1006.74 1007.30 1006.97 1007.74 1008.71 1009.37 1010.12 1010.63 1010.88 1011.12 1011.25 1012.37 1012.82 1013.51 1013.98 1014.54 1014.99 1015.55 1015.51 1015.48 1016.15 1016.48 1017.00 1017.74 1018.05 1018.62 1018.55 1019.02 1019.27 1019.15 1018.84 1018.11
1009.13 1008.08 1009.03 1008.72 1010.01 1010.20 1009.67 1009.11 1008.60 1008.16 1007.57 1007.54 1007.21 1006.53 1006.23 1005.96 1005.99 1006.01 1006.42 1006.90 1006.81 1007.91 1008.72 1009.66 1010.32 1010.86 1010.98 1010.80 1011.85 1012.02 1012.46 1013.18 1013.74 1014.33 1015.02 1014.99 1015.04 1015.56 1015.99 1016.04 1016.75 1017.21 1017.63 1017.70 1018.15 1018.20 1018.40 1018.25 1018.20
1009.78 1009.09 1009.82 1010.59 1010.73 1010.71 1010.43 1009.57 1009.11 1007.81 1007.95 1007.85 1007.80 1007.45 1006.99 1006.51 1005.84 1005.71 1005.89 1006.15 1006.56 1006.96 1008.07 1009.06 1009.84 1010.48 1010.93 1010.77 1011.24 1011.37 1011.77 1012.44 1013.00 1013.63 1014.36 1014.51 1014.62 1015.02 1015.50 1015.51 1016.04 1016.40 1016.65 1017.08 1017.26 1017.52 1017.89 1018.01 1017.95
1011.33 1011.17 1010.90 1010.77 1010.63 1010.54 1010.42 1009.50 1009.31 1007.99 1008.07 1007.33 1007.42 1007.38 1006.80 1006.16 1005.60 1005.36 1005.32 1005.63 1006.17 1006.43 1007.22 1008.40 1009.28 1010.11 1010.63 1010.63 1010.92 1011.07 1011.42 1011.82 1012.48 1012.91 1013.57 1014.30 1014.38 1014.56 1015.07 1015.16 1015.50 1015.73 1015.89 1016.39 1016.56 1016.91 1017.06 1017.55 1017.55
1011.97 1011.37 1010.42 1010.26 1010.91 1011.30 1010.64 1009.58 1008.35 1007.79 1007.90 1007.69 1007.42 1007.07 1006.50 1006.26 1005.95 1005.11 1004.95 1005.21 1005.52 1006.00 1006.53 1007.64 1008.84 1009.68 1010.30 1010.45 1010.68 1010.96 1011.15 1011.37 1011.97 1012.32 1013.08 1013.96 1014.12 1014.15 1014.68 1014.86 1015.09 1015.14 1015.48 1015.89 1016.25 1016.48 1016.82 1016.91 1017.20
1011.36 1011.04 1009.91 1010.25 1010.59 1011.39 1011.52 1009.65 1008.65 1008.18 1008.26 1008.21 1007.88 1007.51 1006.86 1006.00 1005.52 1005.12 1004.79 1004.56 1004.77 1005.41 1006.06 1006.87 1008.19 1008.99 1009.92 1010.30 1010.39 1010.60 1010.69 1011.24 1011.64 1012.04 1012.70 1013.46 1013.88 1013.90 1014.57 1014.56 1014.70 1014.92 1015.28 1015.57 1015.90 1016.27 1016.43 1016.71 1016.67
1010.49 1010.92 1010.96 1010.81 1010.77 1010.90 1011.58 1010.42 1010.24 1010.02 1009.74 1009.06 1008.62 1008.22 1007.44 1006.46 1005.40 1004.86 1004.27 1004.06 1004.18 1004.53 1005.58 1006.29 1007.41 1008.48 1009.25 1009.98 1010.21 1010.38 1010.50 1010.97 1011.12 1011.52 1011.97 1012.97 1013.59 1013.89 1013.89 1014.09 1014.14 1014.66 1015.02 1015.34 1015.70 1015.91 1016.12 1016.21 1016.40
1012.47 1012.04 1011.53 1010.94 1011.20 1011.30 1011.09 1010.61 1010.56 1010.39 1009.92 1009.28 1008.88 1008.64 1007.90 1007.00 1006.08 1005.34 1004.46 1003.63 1003.56 1003.84 1004.61 1005.76 1006.65 1007.84 1008.73 1009.41 1009.93 1009.95 1010.13 1010.44 1010.66 1010.81 1011.26 1012.02 1013.07 1013.59 1013.80 1013.72 1013.81 1014.27 1014.72 1014.98 1015.28 1015.52 1015.71 1015.88 1015.82
1013.58 1012.78 1011.90 1011.37 1011.68 1011.86 1011.45 1010.98 1010.48 1010.28 1009.96 1009.46 1008.80 1008.37 1007.87 1007.05 1006.12 1005.50 1004.90 1004.28 1003.84 1004.02 1003.93 1005.01 1006.12 1007.14 1008.20 1008.61 1008.82 1009.13 1009.26 1009.60 1010.16 1010.38 1010.64 1011.25 1012.16 1012.94 1013.42 1013.47 1013.60 1013.85 1014.22 1014.39 1014.68 1015.06 1015.36 1015.37 1015.66
1013.54 1012.94 1012.19 1012.16 1012.10 1012.53 1011.69 1011.07 1010.99 1011.72 1012.01 1011.42 1009.02 1008.35 1007.80 1007.29 1006.15 1006.33 1005.71 1004.66 1004.20 1004.61 1004.15 1004.30 1005.33 1006.30 1007.38 1007.82 1008.14 1008.51 1008.59 1009.05 1009.37 1009.98 1010.10 1010.68 1011.25 1012.00 1012.69 1013.06 1013.09 1013.43 1013.73 1014.05 1014.26 1014.58 1014.77 1015.03 1015.04
1013.86 1013.80 1013.57 1013.26 1012.95 1012.01 1011.03 1011.22 1012.59 1013.68 1014.20 1013.96 1011.10 1008.97 1008.02 1007.77 1007.55 1006.99 1006.27 1005.39 1004.61 1004.27 1004.34 1004.18 1004.76 1005.49 1006.44 1007.16 1007.59 1007.85 1008.14 1008.28 1008.57 1009.05 1009.61 1010.10 1010.69 1011.23 1011.85 1012.19 1012.63 1012.64 1013.14 1013.31 1013.83 1014.08 1014.39 1014.23 1014.51
1014.23 1014.68 1014.33 1013.56 1013.00 1011.85 1012.33 1012.50 1015.12 1015.95 1016.31 1015.78 1014.32 1012.37 1011.06 1009.75 1008.98 1007.84 1006.84 1006.46 1005.86 1005.18 1004.51 1004.37 1004.52 1005.00 1005.78 1006.70 1006.80 1007.05 1007.23 1007.33 1007.77 1008.50 1009.16 1009.58 1009.99 1010.48 1010.91 1011.44 1011.81 1012.21 1012.26 1012.81 1013.07 1013.62 1013.84 1014.23 1013.61
1015.04 1014.91 1014.15 1013.67 1012.76 1012.56 1012.80 1013.96 1017.52 1018.29 1018.50 1017.78 1017.55 1015.74 1014.70 1013.08 1011.24 1009.95 1009.26 1008.52 1007.51 1007.10 1006.31 1005.41 1004.71 1004.56 1005.17 1006.41 1007.06 1007.13 1007.26 1007.39 1007.50 1008.11 1008.37 1008.67 1009.04 1009.57 1010.16 1010.54 1011.23 1011.58 1011.93 1011.97 1012.47 1012.62 1013.07 1013.24 1013.57
1015.52 1014.08 1012.78 1012.49 1012.51 1012.95 1013.72 1015.34 1018.57 1020.16 1020.94 1020.33 1020.03 1019.33 1017.72 1016.22 1014.20 1012.94 1012.49 1011.31 1010.32 1009.82 1008.90 1007.55 1005.88 1004.79 1004.70 1005.64 1006.84 1007.42 1007.81 1007.98 1007.82 1007.75 1007.74 1008.19 1008.75 1008.93 1009.48 1009.99 1010.36 1010.84 1011.13 1011.37 1011.54 1012.10 1012.35 1012.63 1012.61
1014.98 1014.20 1012.47 1012.72 1013.13 1013.41 1014.62 1017.31 1020.83 1021.62 1021.83 1021.92 1021.76 1021.07 1020.10 1018.77 1016.98 1015.54 1014.22 1013.38 1012.88 1011.97 1011.01 1009.60 1008.55 1007.27 1006.91 1006.72 1006.28 1006.86 1007.36 1007.72 1007.79 1007.88 1007.95 1007.98 1008.80 1009.12 1008.96 1009.36 1009.68 1010.10 1010.40 1010.56 1010.89 1011.14 1011.57 1011.74 1011.95
1015.96 1016.01 1015.40 1014.84 1013.89 1014.18 1016.26 1018.43 1021.05 1022.03 1022.38 1022.19 1021.81 1021.64 1020.75 1019.67 1018.39 1016.93 1015.99 1015.03 1014.35 1013.49 1012.65 1011.64 1010.69 1010.01 1009.40 1009.27 1009.12 1008.75 1008.40 1007.33 1007.68 1007.45 1007.44 1007.83 1007.92 1008.24 1008.74 1009.08 1009.40 1009.51 1010.08 1010.19 1010.38 1010.54 1010.70 1011.07 1011.20
1016.78 1016.59 1017.13 1016.97 1015.37 1016.11 1017.03 1019.47 1020.84 1020.83 1021.83 1022.07 1021.93 1021.17 1020.77 1020.35 1019.34 1017.98 1017.01 1016.16 1015.53 1014.69 1014.08 1013.43 1012.59 1011.92 1011.39 1011.09 1010.78 1010.44 1010.20 1009.82 1009.38 1008.84 1008.06 1007.45 1007.47 1007.40 1007.39 1008.01 1008.64 1009.18 1009.55 1009.76 1009.89 1010.00 1010.13 1010.32 1010.59
1017.70 1018.06 1017.77 1017.84 1017.22 1016.60 1016.66 1017.76 1019.17 1020.01 1021.02 1021.34 1021.15 1021.00 1020.30 1019.58 1019.30 1018.57 1017.62 1016.92 1016.52 1015.99 1015.45 1014.85 1014.16 1013.47 1013.03 1012.59 1011.88 1011.74 1011.80 1011.61 1011.22 1010.54 1010.36 1009.97 1009.57 1008.89 1008.44 1007.86 1008.18 1008.52 1008.54 1008.75 1009.06 1009.31 1009.65 1009.60 1009.67
1017.80 1018.22 1019.09 1019.55 1018.79 1018.29 1017.51 1018.37 1018.85 1019.28 1019.82 1019.71 1019.71 1019.38 1019.18 1018.65 1018.78 1018.45 1018.09 1017.30 1017.07 1016.93 1016.42 1016.00 1015.42 1014.88 1014.35 1013.73 1013.64 1013.35 1013.14 1013.10 1012.86 1012.17 1011.76 1011.49 1010.97 1010.60 1009.96 1009.41 1008.74 1008.15 1008.02 1007.94 1008.09 1008.47 1008.91 1008.93 1009.04
1018.72 1018.76 1019.06 1019.48 1019.56 1019.13 1018.82 1018.88 1019.08 1018.57 1018.73 1018.32 1018.04 1017.83 1017.96 1017.86 1017.87 1018.25 1017.93 1017.65 1017.42 1017.26 1017.20 1016.85 1016.28 1015.81 1015.42 1015.13 1014.95 1014.95 1014.53 1013.91 1013.48 1013.63 1012.40 1012.59 1011.71 1011.44 1010.89 1010.55 1010.00 1009.51 1009.20 1008.91 1008.77 1008.69 1008.40 1008.43 1008.44
Thickness
5757 5776 5785 5783 5762 5780 5784 5809 5840 5826 5817 5834 5836 5827 5821 5829 5823 5790 5839 5836 5834 5818 5803 5794 5789 5784 5780 5774 5770 5766 5763 5756 5750 5748 5747 5746 5745 5742 5740 5738 5736 5734 5735 5735 5734 5732 5731 5730 5730
5757 5772 5777 5774 5757 5768 5792 5821 5815 5821 5826 5829 5831 5830 5826 5821 5840 5826 5829 5836 5832 5818 5804 5797 5790 5784 5779 5774 5770 5765 5762 5756 5751 5748 5746 5744 5743 5742 5740 5738 5736 5734 5734 5734 5733 5732 5731 5730 5729
5756 5767 5759 5760 5764 5767 5799 5833 5822 5826 5820 5819 5819 5833 5827 5819 5830 5831 5839 5837 5831 5818 5806 5798 5791 5785 5779 5775 5771 5765 5761 5757 5751 5748 5746 5744 5742 5741 5739 5738 5736 5735 5734 5733 5732 5731 5730 5729 5729
5756 5760 5761 5744 5759 5789 5799 5810 5811 5811 5814 5816 5819 5811 5829 5827 5826 5832 5836 5834 5825 5817 5808 5794 5788 5785 5780 5774 5771 5766 5760 5756 5751 5748 5746 5743 5741 5740 5738 5738 5736 5735 5734 5732 5731 5731 5730 5730 5728
5753 5757 5743 5750 5757 5781 5791 5794 5792 5791 5800 5804 5814 5804 5808 5819 5825 5829 5827 5828 5820 5815 5808 5791 5786 5783 5779 5774 5770 5766 5761 5755 5750 5748 5746 5743 5741 5739 5737 5736 5736 5734 5734 5732 5730 5729 5729 5729 5728
5737 5750 5735 5744 5763 5777 5780 5785 5782 5782 5794 5801 5802 5803 5798 5819 5817 5820 5823 5820 5818 5812 5805 5790 5782 5780 5777 5773 5769 5765 5761 5755 5749 5746 5744 5742 5740 5738 5737 5735 5735 5734 5733 5731 5730 5729 5728 5728 5727
5727 5738 5736 5749 5760 5764 5763 5775 5766 5775 5783 5792 5804 5787 5797 5803 5808 5814 5814 5813 5811 5808 5800 5788 5781 5777 5774 5771 5767 5764 5760 5755 5750 5746 5743 5740 5739 5737 5735 5734 5733 5733 5732 5730 5729 5728 5727 5726 5726
5732 5733 5731 5745 5744 5743 5756 5756 5768 5767 5772 5797 5798 5784 5778 5785 5800 5806 5807 5805 5803 5800 5794 5787 5780 5776 5772 5766 5763 5762 5758 5755 5749 5745 5741 5739 5736 5735 5733 5731 5731 5731 5730 5730 5728 5727 5726 5724 5725
5725 5711 5718 5735 5737 5740 5746 5734 5760 5769 5765 5780 5785 5787 5777 5792 5790 5795 5793 5794 5793 5790 5787 5784 5781 5777 5774 5769 5761 5758 5755 5752 5748 5743 5739 5737 5736 5733 5731 5732 5731 5729 5728 5728 5727 5726 5724 5723 5723
5706 5708 5719 5724 5728 5728 5733 5733 5737 5734 5751 5765 5771 5783 5783 5784 5782 5777 5784 5782 5783 5782 5783 5781 5780 5777 5774 5772 5764 5758 5754 5751 5748 5744 5739 5739 5740 5736 5735 5732 5730 5728 5727 5726 5725 5723 5722 5722 5726
5706 5697 5709 5709 5702 5703 5707 5718 5733 5724 5724 5748 5750 5764 5773 5774 5776 5776 5776 5785 5782 5781 5781 5780 5778 5776 5775 5775 5767 5763 5758 5756 5752 5748 5743 5743 5743 5738 5736 5733 5729 5728 5726 5725 5723 5721 5722 5725 5730
5673 5694 5687 5694 5688 5687 5693 5707 5710 5717 5721 5730 5738 5750 5758 5765 5769 5774 5775 5778 5785 5782 5780 5779 5777 5774 5773 5775 5768 5768 5765 5760 5756 5751 5746 5746 5746 5742 5738 5739 5734 5732 5730 5729 5727 5726 5725 5727 5728
5667 5680 5679 5674 5672 5677 5684 5691 5696 5714 5719 5725 5725 5733 5738 5751 5763 5773 5776 5780 5783 5782 5779 5777 5776 5773 5770 5773 5770 5770 5768 5763 5759 5755 5749 5748 5748 5745 5741 5741 5738 5736 5734 5732 5731 5729 5727 5727 5727
5653 5653 5658 5664 5666 5670 5670 5684 5688 5708 5708 5716 5719 5722 5733 5745 5756 5764 5770 5772 5775 5781 5779 5777 5774 5771 5768 5770 5769 5769 5767 5765 5761 5758 5753 5748 5748 5747 5743 5742 5740 5739 5738 5735 5734 5732 5731 5727 5728
5643 5641 5657 5659 5655 5650 5664 5667 5680 5689 5697 5701 5709 5716 5726 5734 5746 5757 5765 5767 5773 5776 5778 5775 5770 5768 5765 5767 5766 5765 5764 5764 5761 5759 5754 5748 5748 5748 5744 5743 5741 5741 5739 5736 5733 5732 5730 5729 5728
5640 5644 5645 5651 5651 5644 5641 5642 5669 5680 5685 5682 5693 5703 5713 5726 5738 5749 5759 5768 5773 5773 5772 5773 5768 5765 5762 5762 5764 5764 5764 5761 5759 5756 5752 5748 5747 5747 5742 5742 5742 5740 5738 5736 5734 5731 5730 5728 5729
5646 5624 5623 5629 5641 5636 5625 5623 5639 5653 5660 5666 5675 5683 5696 5713 5728 5741 5753 5762 5768 5772 5767 5767 5765 5761 5759 5758 5759 5759 5759 5758 5758 5755 5753 5748 5744 5743 5744 5743 5743 5739 5737 5735 5732 5731 5730 5728 5727
5602 5606 5613 5615 5621 5618 5614 5614 5622 5632 5642 5652 5663 5668 5680 5693 5709 5723 5739 5754 5762 5766 5766 5762 5762 5757 5755 5753 5752 5755 5755 5755 5755 5757 5755 5750 5743 5740 5739 5741 5742 5739 5736 5734 5733 5730 5731 5729 5728
5597 5598 5600 5610 5606 5595 5596 5599 5611 5616 5625 5634 5649 5658 5666 5679 5696 5709 5721 5737 5747 5752 5758 5756 5753 5752 5747 5749 5749 5750 5752 5755 5753 5754 5753 5751 5744 5740 5737 5737 5739 5738 5734 5734 5733 5731 5727 5727 5727
5594 5590 5591 5589 5586 5573 5578 5585 5591 5576 5583 5601 5635 5645 5655 5662 5673 5685 5700 5717 5729 5735 5746 5752 5750 5748 5745 5747 5750 5750 5752 5753 5753 5749 5750 5748 5745 5741 5737 5736 5737 5736 5733 5731 5731 5729 5726 5724 5727
5583 5571 5562 5555 5556 5567 5571 5567 5545 5547 5545 5554 5595 5627 5633 5638 5650 5666 5682 5695 5710 5721 5730 5740 5744 5744 5743 5743 5744 5746 5748 5749 5747 5746 5747 5747 5744 5741 5738 5736 5733 5735 5733 5731 5728 5727 5723 5721 5723
5566 5558 5548 5545 5539 5540 5549 5533 5508 5517 5518 5523 5541 5569 5586 5612 5630 5647 5661 5674 5686 5701 5717 5725 5732 5734 5736 5735 5737 5737 5739 5741 5745 5743 5742 5741 5740 5738 5736 5733 5731 5730 5732 5727 5727 5723 5722 5717 5720
5554 5549 5546 5544 5545 5542 5542 5530 5489 5495 5490 5500 5503 5520 5540 5567 5591 5608 5619 5638 5655 5667 5688 5709 5721 5728 5730 5725 5725 5728 5729 5735 5737 5736 5736 5739 5740 5738 5733 5731 5727 5726 5725 5727 5723 5724 5720 5719 5714
5549 5554 5561 5561 5556 5531 5538 5528 5485 5471 5464 5477 5475 5483 5503 5524 5552 5571 5588 5606 5624 5638 5656 5676 5696 5713 5720 5719 5715 5714 5714 5716 5719 5724 5728 5729 5728 5729 5728 5727 5728 5726 5725 5725 5726 5719 5718 5717 5717
5552 5547 5555 5546 5537 5538 5543 5508 5468 5461 5464 5462 5454 5466 5474 5492 5517 5539 5562 5576 5591 5606 5621 5643 5656 5671 5679 5687 5707 5708 5708 5708 5711 5711 5714 5715 5713 5716 5721 5722 5720 5721 5722 5723 5722 5720 5716 5716 5714
5537 5529 5526 5520 5542 5546 5527 5499 5471 5460 5461 5462 5464 5462 5469 5480 5497 5518 5536 5551 5566 5582 5595 5611 5626 5637 5649 5661 5671 5680 5685 5699 5701 5706 5710 5710 5712 5713 5714 5714 5713 5710 5711 5714 5715 5715 5717 5714 5712
5528 5524 5524 5513 5541 5521 5522 5481 5475 5483 5467 5460 5458 5466 5471 5471 5482 5499 5516 5530 5543 5561 5573 5584 5598 5612 5622 5631 5641 5650 5658 5667 5676 5686 5696 5705 5710 5714 5715 5712 5711 5708 5706 5707 5708 5707 5708 5707 5706
5525 5521 5515 5517 5511 5519 5528 5518 5497 5486 5468 5462 5467 5464 5474 5479 5479 5488 5499 5510 5524 5536 5550 5561 5574 5587 5596 5606 5617 5625 5631 5637 5645 5656 5662 5669 5677 5688 5695 5704 5705 5704 5705 5704 5703 5703 5700 5698 5698
5523 5514 5502 5496 5508 5507 5515 5500 5499 5491 5484 5483 5481 5483 5484 5488 5478 5487 5493 5503 5506 5515 5527 5539 5551 5562 5573 5584 5588 5593 5598 5604 5616 5629 5637 5644 5653 5660 5669 5677 5686 5694 5698 5699 5698 5696 5694 5694 5694
5518 5513 5508 5494 5492 5498 5495 5489 5491 5496 5492 5495 5495 5495 5492 5492 5490 5485 5488 5496 5500 5504 5510 5520 5532 5542 5551 5558 5565 5569 5575 5581 5591 5599 5616 5620 5632 5639 5646 5652 5661 5667 5673 5678 5679 5680 5686 5686 5687